GW2987 Weather Reports


time (UTC)temp
C
wind
direction
speed
KPH
gust
KPH
rain 1hr
cm
rain 24hr
cm
rain mn
cm
humidity
%
barometer
mb
20260503053041 25 238 3.2 8.0 0.00 0.00 0.00 78 1013.6
20260503052524 25 207 0.0 8.0 0.00 0.00 0.00 78 1013.9
20260503052025 25 235 0.0 8.0 0.00 0.00 0.00 78 1013.9
20260503051536 25 214 3.2 8.0 0.00 0.00 0.00 78 1014.1
20260503051024 25 282 1.6 6.4 0.00 0.00 0.00 79 1014.1
20260503050525 25 258 3.2 6.4 0.00 0.00 0.00 79 1014.0
20260503050040 25 246 1.6 6.4 0.00 0.00 0.00 79 1014.0
20260503045525 26 0 0.0 4.8 0.00 0.00 0.00 80 1014.0
20260503045025 26 236 1.6 9.7 0.00 0.00 0.00 80 1014.1
20260503044538 26 264 4.8 9.7 0.00 0.00 0.00 81 1014.1
20260503044025 26 216 3.2 8.0 0.00 0.00 0.00 81 1014.2
20260503043525 26 217 1.6 6.4 0.00 0.00 0.00 81 1014.2
20260503043038 26 230 1.6 6.4 0.00 0.00 0.00 81 1014.2
20260503042525 26 269 1.6 8.0 0.00 0.00 0.00 81 1014.1
20260503042025 26 227 3.2 8.0 0.00 0.00 0.00 80 1014.0
20260503041536 26 261 3.2 8.0 0.00 0.00 0.00 80 1013.9
20260503041027 26 240 3.2 6.4 0.00 0.00 0.00 80 1014.0
20260503040524 26 132 3.2 6.4 0.00 0.00 0.00 79 1014.0
20260503040039 26 238 3.2 8.0 0.00 0.00 0.00 79 1013.8
20260503035525 26 244 1.6 9.7 0.00 0.00 0.00 79 1013.7
20260503035025 26 241 1.6 9.7 0.00 0.00 0.00 79 1014.0
20260503034539 26 245 4.8 9.7 0.00 0.00 0.00 79 1014.0
20260503034025 26 242 3.2 11.3 0.00 0.00 0.00 78 1014.0
20260503033524 26 270 1.6 11.3 0.00 0.00 0.00 78 1013.9
20260503033038 26 241 3.2 11.3 0.00 0.00 0.00 78 1013.8
20260503032524 26 274 4.8 11.3 0.00 0.00 0.00 78 1013.6
20260503032024 26 281 3.2 11.3 0.00 0.00 0.00 77 1013.5
20260503031543 26 242 1.6 8.0 0.00 0.00 0.00 77 1013.7
20260503031025 26 283 1.6 9.7 0.00 0.00 0.00 76 1013.5
20260503030526 26 252 1.6 9.7 0.00 0.00 0.00 76 1013.5
20260503030045 26 229 4.8 9.7 0.00 0.00 0.00 76 1013.5
20260503025526 26 263 3.2 9.7 0.00 0.00 0.00 75 1013.6
20260503025026 26 306 3.2 9.7 0.00 0.00 0.00 75 1013.6
20260503024540 26 276 3.2 11.3 0.00 0.00 0.00 75 1013.6
20260503024026 27 234 3.2 11.3 0.00 0.00 0.00 74 1013.6
20260503023525 27 297 1.6 8.0 0.00 0.00 0.00 74 1013.7
20260503023039 27 250 4.8 11.3 0.00 0.00 0.00 73 1013.6
20260503022524 27 248 4.8 11.3 0.00 0.00 0.00 73 1013.6
20260503022024 27 241 3.2 11.3 0.00 0.00 0.00 73 1013.4
20260503021538 27 259 4.8 11.3 0.00 0.00 0.00 73 1013.5
20260503021026 27 261 4.8 11.3 0.00 0.00 0.00 72 1013.4
20260503020525 27 247 3.2 12.9 0.00 0.00 0.00 72 1013.4
20260503020038 27 239 3.2 12.9 0.00 0.00 0.00 71 1013.3
20260503015526 27 231 4.8 11.3 0.00 0.00 0.00 71 1013.1
20260503015030 27 252 3.2 11.3 0.00 0.00 0.00 71 1013.0
20260503014536 27 235 4.8 9.7 0.00 0.00 0.00 70 1013.2
20260503014026 27 0 3.2 12.9 0.00 0.00 0.00 70 1013.1
20260503013526 27 217 4.8 12.9 0.00 0.00 0.00 69 1013.0
20260503013037 27 269 1.6 9.7 0.00 0.00 0.00 68 1013.1
20260503012525 27 302 3.2 9.7 0.00 0.00 0.00 67 1012.9
20260503012025 28 251 4.8 9.7 0.00 0.00 0.00 66 1012.9
20260503011539 28 254 4.8 14.5 0.00 0.00 0.00 65 1012.8
20260503011024 28 256 6.4 14.5 0.00 0.00 0.00 65 1012.8
20260503010526 28 269 6.4 12.9 0.00 0.00 0.00 64 1012.7
20260503010039 28 249 6.4 16.1 0.00 0.00 0.00 64 1012.7
20260503005525 28 251 4.8 16.1 0.00 0.00 0.00 63 1012.7
20260503005028 28 243 3.2 16.1 0.00 0.00 0.00 62 1012.5
20260503004537 28 257 4.8 16.1 0.00 0.00 0.00 62 1012.7
20260503004023 28 295 4.8 16.1 0.00 0.00 0.00 61 1012.5
20260503003523 28 232 3.2 12.9 0.00 0.00 0.00 60 1012.5
20260503003041 28 221 6.4 16.1 0.00 0.00 0.00 60 1012.4
20260503002523 29 249 6.4 17.7 0.00 0.00 0.00 59 1012.3
20260503002023 29 257 6.4 17.7 0.00 0.00 0.00 58 1012.2
20260503001539 29 255 6.4 24.1 0.00 0.00 0.00 58 1012.2
20260503001022 29 256 6.4 24.1 0.00 0.00 0.00 57 1012.2
20260503000522 30 293 4.8 17.7 0.00 0.00 0.00 56 1012.1
20260503000039 30 290 8.0 17.7 0.00 0.00 0.00 55 1012.1
20260502235523 30 278 4.8 17.7 0.00 0.00 0.00 54 1012.1
20260502235022 30 312 6.4 17.7 0.00 0.00 0.00 53 1012.1
20260502234549 30 200 6.4 14.5 0.00 0.00 0.00 52 1011.9
20260502234026 30 228 6.4 16.1 0.00 0.00 0.00 50 1011.9
20260502233522 31 240 8.0 17.7 0.00 0.00 0.00 49 1011.7
20260502233038 31 347 6.4 17.7 0.00 0.00 0.00 48 1011.6
20260502232523 31 271 4.8 17.7 0.00 0.00 0.00 47 1011.5
20260502232023 31 307 3.2 16.1 0.00 0.00 0.00 46 1011.4
20260502231536 31 271 6.4 11.3 0.00 0.00 0.00 45 1011.3
20260502231023 31 257 4.8 11.3 0.00 0.00 0.00 45 1011.2
20260502230524 31 280 4.8 11.3 0.00 0.00 0.00 44 1011.1
20260502230042 32 274 4.8 14.5 0.00 0.00 0.00 44 1011.0
20260502225522 32 227 4.8 14.5 0.00 0.00 0.00 43 1010.9
20260502225022 32 252 8.0 14.5 0.00 0.00 0.00 42 1010.9
20260502224538 32 224 3.2 12.9 0.00 0.00 0.00 42 1010.8
20260502224023 32 238 3.2 14.5 0.00 0.00 0.00 42 1010.7
20260502223523 33 191 4.8 14.5 0.00 0.00 0.00 41 1010.7
20260502223037 33 255 4.8 14.5 0.00 0.00 0.00 41 1010.7
20260502222522 33 218 4.8 19.3 0.00 0.00 0.00 40 1010.7
20260502222022 33 275 8.0 19.3 0.00 0.00 0.00 40 1010.7
20260502221536 33 290 6.4 12.9 0.00 0.00 0.00 40 1010.7
20260502221023 33 242 6.4 14.5 0.00 0.00 0.00 40 1010.7
20260502220523 33 250 6.4 16.1 0.00 0.00 0.00 39 1010.7
20260502220035 33 176 6.4 19.3 0.00 0.00 0.00 40 1010.6
20260502215522 33 264 8.0 19.3 0.00 0.00 0.00 40 1010.6
20260502215022 33 251 6.4 20.9 0.00 0.00 0.00 39 1010.6
20260502214543 33 226 8.0 20.9 0.00 0.00 0.00 40 1010.6
20260502214023 33 248 8.0 17.7 0.00 0.00 0.00 39 1010.3
20260502213525 33 263 8.0 19.3 0.00 0.00 0.00 40 1010.4
20260502213037 33 256 8.0 19.3 0.00 0.00 0.00 39 1010.4
20260502212525 33 239 6.4 19.3 0.00 0.00 0.00 39 1010.5
20260502212025 33 259 9.7 19.3 0.00 0.00 0.00 39 1010.3
20260502211541 33 264 8.0 19.3 0.00 0.00 0.00 38 1010.3
20260502211025 34 224 9.7 25.7 0.00 0.00 0.00 38 1010.3
20260502210524 33 233 6.4 25.7 0.00 0.00 0.00 40 1010.3
20260502210041 33 285 11.3 25.7 0.00 0.00 0.00 38 1010.2
20260502205525 34 275 9.7 22.5 0.00 0.00 0.00 38 1010.3
20260502205025 34 146 6.4 22.5 0.00 0.00 0.00 38 1010.3
20260502204539 34 249 6.4 20.9 0.00 0.00 0.00 39 1010.3
20260502204026 34 243 8.0 20.9 0.00 0.00 0.00 40 1010.4
20260502203525 34 250 8.0 20.9 0.00 0.00 0.00 41 1010.3
20260502203040 34 229 8.0 24.1 0.00 0.00 0.00 41 1010.4
20260502202527 33 293 9.7 24.1 0.00 0.00 0.00 41 1010.4
20260502202025 34 252 6.4 22.5 0.00 0.00 0.00 41 1010.3
20260502201545 34 291 8.0 20.9 0.00 0.00 0.00 40 1010.4
20260502201025 34 252 4.8 25.7 0.00 0.00 0.00 41 1010.6
20260502200525 33 249 9.7 25.7 0.00 0.00 0.00 41 1010.6
20260502200036 33 237 11.3 27.4 0.00 0.00 0.00 40 1010.6
20260502195525 33 269 8.0 27.4 0.00 0.00 0.00 41 1010.5
20260502195024 34 271 8.0 27.4 0.00 0.00 0.00 43 1010.7
20260502194541 34 295 12.9 27.4 0.00 0.00 0.00 42 1010.8
20260502194024 34 291 8.0 22.5 0.00 0.00 0.00 42 1010.6
20260502193525 34 267 8.0 22.5 0.00 0.00 0.00 42 1010.7
20260502193044 34 292 8.0 22.5 0.00 0.00 0.00 44 1010.8
20260502192528 34 262 11.3 22.5 0.00 0.00 0.00 42 1010.8
20260502192025 34 202 8.0 27.4 0.00 0.00 0.00 42 1010.8
20260502191544 34 239 6.4 27.4 0.00 0.00 0.00 44 1010.8
20260502191025 34 293 12.9 27.4 0.00 0.00 0.00 43 1010.8
20260502190525 34 234 9.7 29.0 0.00 0.00 0.00 42 1010.9
20260502190037 34 249 11.3 29.0 0.00 0.00 0.00 42 1011.0
20260502185524 34 191 9.7 29.0 0.00 0.00 0.00 44 1011.0
20260502185024 34 248 8.0 27.4 0.00 0.00 0.00 44 1011.0
20260502184553 34 252 14.5 27.4 0.00 0.00 0.00 43 1010.9
20260502184025 35 316 8.0 17.7 0.00 0.00 0.00 44 1010.9
20260502183526 35 274 11.3 17.7 0.00 0.00 0.00 45 1010.9
20260502183041 35 259 6.4 17.7 0.00 0.00 0.00 48 1010.8
20260502182528 34 221 6.4 17.7 0.00 0.00 0.00 49 1010.9
20260502182024 34 276 8.0 20.9 0.00 0.00 0.00 50 1011.0
20260502181540 33 256 9.7 20.9 0.00 0.00 0.00 50 1011.2
20260502181026 33 176 9.7 20.9 0.00 0.00 0.00 50 1011.2
20260502180525 33 271 8.0 20.9 0.00 0.00 0.00 51 1011.3
20260502164026 33 255 8.0 22.5 0.00 0.00 0.00 59 1011.8
20260502163525 33 229 8.0 22.5 0.00 0.00 0.00 60 1011.8
20260502163041 32 151 8.0 20.9 0.00 0.00 0.00 61 1011.8
20260502162525 32 206 11.3 20.9 0.00 0.00 0.00 59 1011.9
20260502162024 32 220 6.4 16.1 0.00 0.00 0.00 60 1011.9
20260502161540 32 236 4.8 16.1 0.00 0.00 0.00 61 1011.9
20260502161024 33 231 6.4 16.1 0.00 0.00 0.00 60 1012.1
20260502160529 32 229 6.4 16.1 0.00 0.00 0.00 60 1012.0
20260502152022 31 238 4.8 19.3 0.00 0.00 0.00 64 1012.4
20260502151540 31 182 8.0 17.7 0.00 0.00 0.00 63 1012.3
20260502151022 31 282 6.4 17.7 0.00 0.00 0.00 63 1012.3
20260502150522 31 243 8.0 19.3 0.00 0.00 0.00 63 1012.3
20260502130523 -17 0.0 0.0 0.00 0.00 0.00 1011.9
20260502123524 -17 0.0 0.0 0.00 0.00 0.00 1011.9
20260502123046 -17 0.0 0.0 0.00 0.00 0.00 1012.0
20260502122523 -17 0.0 0.0 0.00 0.00 0.00 1012.1
20260502122025 -17 0.0 0.0 0.00 0.00 0.00 1012.1
20260502121544 -17 0.0 0.0 0.00 0.00 0.00 1011.9
20260502121026 -17 0.0 0.0 0.00 0.00 0.00 1012.1
20260502120527 -17 0.0 0.0 0.00 0.00 0.00 1012.1
20260502115525 -17 0.0 0.0 0.00 0.00 0.00 1011.9
20260502115026 -17 0.0 0.0 0.00 0.00 0.00 1011.8
20260502114546 -17 0.0 0.0 0.00 0.00 0.00 1011.7
20260502114025 -17 0.0 0.0 0.00 0.00 0.00 1011.7
20260502113526 -17 0.0 0.0 0.00 0.00 0.00 1011.8
20260502113042 -17 0.0 0.0 0.00 0.00 0.00 1012.0
20260502112525 -17 0.0 0.0 0.00 0.00 0.00 1012.0
20260502112026 -17 0.0 0.0 0.00 0.00 0.00 1012.0
20260502111545 -17 0.0 0.0 0.00 0.00 0.00 1011.9
20260502111026 -17 0.0 0.0 0.00 0.00 0.00 1012.0
20260502110526 -17 0.0 0.0 0.00 0.00 0.00 1012.1
20260502110041 -17 0.0 0.0 0.00 0.00 0.00 1012.0
20260502105526 -17 0.0 0.0 0.00 0.00 0.00 1012.0
20260502105025 -17 0.0 0.0 0.00 0.00 0.00 1012.0
20260502104540 -17 0.0 0.0 0.00 0.00 0.00 1011.9
20260502104025 -17 0.0 0.0 0.00 0.00 0.00 1011.8
20260502103525 -17 0.0 0.0 0.00 0.00 0.00 1011.9
20260502103052 -17 0.0 0.0 0.00 0.00 0.00 1011.9
20260502102527 -17 0.0 0.0 0.00 0.00 0.00 1011.7
20260502102025 -17 0.0 0.0 0.00 0.00 0.00 1011.7
20260502101537 -17 0.0 0.0 0.00 0.00 0.00 1011.6
20260502101026 -17 0.0 0.0 0.00 0.00 0.00 1011.7
20260502100526 -17 0.0 0.0 0.00 0.00 0.00 1011.8
20260502091025 -17 0.0 0.0 0.00 0.00 0.00 1011.8
20260502090526 -17 0.0 0.0 0.00 0.00 0.00 1011.7
20260502071026 21 0 0.0 0.0 0.00 0.00 0.00 90 1012.1
20260502070527 21 0 0.0 0.0 0.00 0.00 0.00 90 1012.0
20260502070040 21 0 0.0 0.0 0.00 0.00 0.00 90 1012.0
20260502065526 21 0 0.0 0.0 0.00 0.00 0.00 89 1011.8
20260502065025 21 0 0.0 0.0 0.00 0.00 0.00 89 1011.9
20260502064539 21 0 0.0 1.6 0.00 0.00 0.00 90 1011.8
20260502064026 21 0 0.0 1.6 0.00 0.00 0.00 90 1011.8
20260502063526 21 0 0.0 0.0 0.00 0.00 0.00 90 1012.0
20260502063044 21 0 0.0 0.0 0.00 0.00 0.00 90 1012.0
20260502062526 21 0 0.0 0.0 0.00 0.00 0.00 89 1012.1
20260502062027 21 0 0.0 0.0 0.00 0.00 0.00 90 1012.1
20260502061538 21 0 0.0 1.6 0.00 0.00 0.00 90 1012.1
20260502061025 21 0 0.0 1.6 0.00 0.00 0.00 90 1012.0
20260502060526 21 0 0.0 1.6 0.00 0.00 0.00 90 1012.1
20260502060042 21 0 0.0 0.0 0.00 0.00 0.00 90 1012.1
20260502055526 21 0 0.0 0.0 0.00 0.00 0.00 89 1012.2
20260502055027 21 0 0.0 0.0 0.00 0.00 0.00 89 1012.0
20260502054542 21 0 0.0 0.0 0.00 0.00 0.00 88 1012.0
20260502054024 21 0 0.0 0.0 0.00 0.00 0.00 88 1011.8
20260502053523 21 0 0.0 0.0 0.00 0.00 0.00 88 1011.9